Location: Bo?a Wola
(50.4192°N, 19.7966°E)
Time: 21:22:48
(UTC+00:00)

Cosmos 1455 Rocket - Pass Details

Date: 26 September 2024
Orbit: 601 x 623 km, 82.5° (Epoch: 13 October)

Event Time Altitude Azimuth Distance (km) Brightness Sun altitude
Exits shadow 23:26:37 10° 13° (NNE) 1,972 6.3 -39.9°
Drops below altitude 10° 23:26:38 10° 13° (NNE) 1,981 6.3 -39.9°
Sets 23:28:53 0° 12° (NNE) 2,895 7.4 -39.8°
